When you browse on this site, cookies collect data to enhance your experience and personalize the content and advertising you see.
Visit our Privacy Policy to learn more. By continuing to use the site, you agree to this use of cookies and data.
  • In Deutschland
  • Länderverzeichnis
  • Für 7 Tage
  • Wassertemperatur
  • Wetterkarte
  • Widgets
  • user-avatar
    Anmelden

    Stündliche Wetter Shilkinskoe

    Heute, 15 Oktober, Dienstag

    Zeit Temperatur Niederschläge Wind Luftdruck Luftfeuchtigkeit
    00:00 +6°C° 0 mm 5 m/S 741 mmHg 81%
    01:00 +6°C° 0 mm 5 m/S 741 mmHg 80%
    02:00 +6°C° 0 mm 5 m/S 742 mmHg 80%
    03:00 +6°C° 0 mm 5 m/S 742 mmHg 79%
    04:00 +6°C° 0 mm 5 m/S 742 mmHg 78%
    05:00 +5°C° 0 mm 5 m/S 743 mmHg 79%
    06:00 +5°C° 0 mm 5 m/S 743 mmHg 80%
    07:00 +5°C° 0 mm 5 m/S 743 mmHg 80%
    08:00 +5°C° 0 mm 5 m/S 743 mmHg 78%
    09:00 +6°C° 0 mm 5 m/S 743 mmHg 76%
    10:00 +5°C° 0 mm 6 m/S 743 mmHg 74%
    11:00 +7°C° 0.1 mm 5 m/S 743 mmHg 72%
    12:00 +7°C° 0.1 mm 5 m/S 743 mmHg 70%
    13:00 +7°C° 0.1 mm 5 m/S 743 mmHg 68%
    14:00 +6°C° 0 mm 4 m/S 743 mmHg 72%
    15:00 +7°C° 0 mm 3 m/S 743 mmHg 75%
    16:00 +5°C° 0 mm 3 m/S 743 mmHg 79%
    17:00 +6°C° 0 mm 2 m/S 743 mmHg 81%
    18:00 +5°C° 0 mm 2 m/S 743 mmHg 84%
    19:00 +4°C° 0 mm 2 m/S 743 mmHg 86%
    20:00 +4°C° 0 mm 2 m/S 743 mmHg 88%
    21:00 +4°C° 0 mm 2 m/S 743 mmHg 89%
    22:00 +3°C° 0 mm 2 m/S 743 mmHg 90%
    23:00 +3°C° 0 mm 2 m/S 743 mmHg 91%

    Morgen, 16 Oktober, Mittwoch

    Zeit Temperatur Niederschläge Wind Luftdruck Luftfeuchtigkeit
    00:00 +2°C° 0 mm 3 m/S 743 mmHg 92%
    01:00 +1°C° 0 mm 3 m/S 743 mmHg 92%
    02:00 +1°C° 0 mm 3 m/S 743 mmHg 92%
    03:00 +1°C° 0 mm 3 m/S 744 mmHg 91%
    04:00 -1°C° 0 mm 4 m/S 744 mmHg 90%
    05:00 -1°C° 0 mm 4 m/S 744 mmHg 90%
    06:00 -1°C° 0 mm 4 m/S 745 mmHg 90%
    07:00 -1°C° 0 mm 4 m/S 745 mmHg 90%
    08:00 -1°C° 0 mm 4 m/S 745 mmHg 91%
    09:00 0°C° 0 mm 4 m/S 746 mmHg 93%
    10:00 0°C° 0 mm 5 m/S 746 mmHg 94%
    11:00 0°C° 0.2 mm 5 m/S 747 mmHg 95%
    12:00 0°C° 0.2 mm 5 m/S 747 mmHg 95%
    13:00 0°C° 0.2 mm 5 m/S 747 mmHg 95%
    14:00 +1°C° 0 mm 5 m/S 748 mmHg 92%
    15:00 +1°C° 0 mm 5 m/S 748 mmHg 88%
    16:00 +1°C° 0 mm 5 m/S 749 mmHg 84%
    17:00 +1°C° 0 mm 5 m/S 749 mmHg 85%
    18:00 0°C° 0 mm 4 m/S 750 mmHg 86%
    19:00 0°C° 0 mm 4 m/S 750 mmHg 87%
    20:00 0°C° 0 mm 5 m/S 751 mmHg 86%
    21:00 0°C° 0 mm 5 m/S 751 mmHg 85%
    22:00 -1°C° 0 mm 5 m/S 752 mmHg 84%
    23:00 -1°C° 0 mm 5 m/S 752 mmHg 85%

    übermorgen, 17 Oktober, Donnerstag

    Zeit Temperatur Niederschläge Wind Luftdruck Luftfeuchtigkeit
    00:00 -1°C° 0 mm 5 m/S 752 mmHg 85%
    01:00 -1°C° 0 mm 5 m/S 753 mmHg 85%
    02:00 -2°C° 0 mm 5 m/S 753 mmHg 85%
    03:00 -2°C° 0 mm 5 m/S 754 mmHg 85%
    04:00 -2°C° 0 mm 5 m/S 754 mmHg 84%
    05:00 -2°C° 0 mm 4 m/S 755 mmHg 84%
    06:00 -2°C° 0 mm 4 m/S 755 mmHg 84%
    07:00 -2°C° 0 mm 4 m/S 755 mmHg 83%
    08:00 -1°C° 0 mm 4 m/S 756 mmHg 80%
    09:00 0°C° 0 mm 4 m/S 756 mmHg 76%
    10:00 0°C° 0 mm 4 m/S 756 mmHg 73%
    11:00 +1°C° 0 mm 4 m/S 756 mmHg 71%
    12:00 +1°C° 0 mm 4 m/S 756 mmHg 70%
    13:00 +1°C° 0 mm 4 m/S 756 mmHg 68%
    14:00 +1°C° 0 mm 4 m/S 756 mmHg 69%
    15:00 +1°C° 0 mm 3 m/S 756 mmHg 71%
    16:00 +1°C° 0 mm 3 m/S 756 mmHg 72%
    17:00 +2°C° 0 mm 2 m/S 756 mmHg 74%
    18:00 +1°C° 0 mm 2 m/S 755 mmHg 77%
    19:00 +1°C° 0 mm 2 m/S 755 mmHg 79%
    20:00 +1°C° 0.1 mm 2 m/S 755 mmHg 85%
    21:00 -1°C° 0.1 mm 2 m/S 754 mmHg 90%
    22:00 -1°C° 0.1 mm 2 m/S 754 mmHg 96%
    23:00 -1°C° 0.3 mm 3 m/S 753 mmHg 96%

    18 Oktober, Freitag

    Zeit Temperatur Niederschläge Wind Luftdruck Luftfeuchtigkeit
    00:00 -1°C° 0.3 mm 3 m/S 752 mmHg 96%
    01:00 -1°C° 0.3 mm 3 m/S 751 mmHg 97%
    02:00 -1°C° 0.6 mm 3 m/S 750 mmHg 97%
    03:00 -1°C° 0.6 mm 3 m/S 750 mmHg 97%
    04:00 -1°C° 0.6 mm 3 m/S 749 mmHg 97%
    05:00 -1°C° 0.4 mm 3 m/S 748 mmHg 97%
    06:00 0°C° 0.4 mm 3 m/S 747 mmHg 98%
    07:00 0°C° 0.4 mm 3 m/S 747 mmHg 98%
    08:00 -1°C° 1 mm 4 m/S 747 mmHg 98%
    09:00 -1°C° 1 mm 5 m/S 747 mmHg 98%
    10:00 -3°C° 1 mm 6 m/S 747 mmHg 98%
    11:00 -3°C° 0.9 mm 6 m/S 747 mmHg 98%
    12:00 -3°C° 0.9 mm 7 m/S 748 mmHg 98%
    13:00 -3°C° 0.9 mm 7 m/S 749 mmHg 97%
    14:00 -3°C° 0.2 mm 7 m/S 750 mmHg 94%
    15:00 -3°C° 0.2 mm 7 m/S 751 mmHg 91%
    16:00 -3°C° 0.2 mm 7 m/S 752 mmHg 87%
    17:00 -4°C° 0 mm 6 m/S 753 mmHg 88%
    18:00 -4°C° 0 mm 6 m/S 755 mmHg 88%
    19:00 -5°C° 0 mm 6 m/S 756 mmHg 88%
    20:00 -5°C° 0 mm 5 m/S 757 mmHg 87%
    21:00 -6°C° 0 mm 5 m/S 757 mmHg 85%
    22:00 -5°C° 0 mm 4 m/S 758 mmHg 83%
    23:00 -5°C° 0 mm 4 m/S 759 mmHg 85%

    19 Oktober, Samstag

    Zeit Temperatur Niederschläge Wind Luftdruck Luftfeuchtigkeit
    00:00 -6°C° 0 mm 3 m/S 759 mmHg 87%
    01:00 -6°C° 0 mm 3 m/S 760 mmHg 89%
    02:00 -6°C° 0 mm 3 m/S 760 mmHg 90%
    03:00 -7°C° 0 mm 3 m/S 761 mmHg 91%
    04:00 -7°C° 0 mm 3 m/S 762 mmHg 93%
    05:00 -7°C° 0 mm 2 m/S 762 mmHg 92%
    06:00 -7°C° 0 mm 2 m/S 762 mmHg 92%
    07:00 -7°C° 0 mm 2 m/S 763 mmHg 91%
    08:00 -6°C° 0 mm 2 m/S 763 mmHg 87%
    09:00 -5°C° 0 mm 2 m/S 764 mmHg 83%
    10:00 -4°C° 0 mm 2 m/S 764 mmHg 79%
    11:00 -3°C° 0 mm 2 m/S 764 mmHg 77%
    12:00 -3°C° 0 mm 2 m/S 764 mmHg 74%
    13:00 -2°C° 0 mm 2 m/S 764 mmHg 71%
    14:00 -2°C° 0 mm 2 m/S 764 mmHg 75%
    15:00 -3°C° 0 mm 2 m/S 764 mmHg 79%
    16:00 -3°C° 0 mm 2 m/S 764 mmHg 83%
    17:00 -4°C° 0 mm 2 m/S 764 mmHg 84%
    18:00 -5°C° 0 mm 2 m/S 764 mmHg 86%
    19:00 -5°C° 0 mm 2 m/S 765 mmHg 87%
    20:00 -5°C° 0 mm 2 m/S 765 mmHg 86%
    21:00 -5°C° 0 mm 2 m/S 765 mmHg 86%
    22:00 -6°C° 0 mm 3 m/S 765 mmHg 86%
    23:00 -6°C° 0 mm 3 m/S 765 mmHg 86%

    20 Oktober, Sonntag

    Zeit Temperatur Niederschläge Wind Luftdruck Luftfeuchtigkeit
    00:00 -6°C° 0 mm 3 m/S 765 mmHg 86%
    01:00 -6°C° 0 mm 3 m/S 764 mmHg 86%
    02:00 -6°C° 0 mm 3 m/S 764 mmHg 86%
    03:00 -6°C° 0 mm 3 m/S 764 mmHg 86%
    04:00 -6°C° 0 mm 3 m/S 764 mmHg 85%
    05:00 -6°C° 0 mm 3 m/S 764 mmHg 86%
    06:00 -6°C° 0 mm 3 m/S 764 mmHg 86%
    07:00 -7°C° 0 mm 3 m/S 764 mmHg 86%
    08:00 -5°C° 0 mm 3 m/S 764 mmHg 84%
    09:00 -4°C° 0 mm 3 m/S 764 mmHg 82%
    10:00 -3°C° 0 mm 4 m/S 764 mmHg 80%
    11:00 -2°C° 0 mm 4 m/S 764 mmHg 81%
    12:00 -1°C° 0 mm 4 m/S 763 mmHg 81%
    13:00 -1°C° 0 mm 4 m/S 763 mmHg 81%
    14:00 -1°C° 0 mm 4 m/S 763 mmHg 82%
    15:00 -1°C° 0 mm 4 m/S 763 mmHg 83%
    16:00 0°C° 0 mm 3 m/S 763 mmHg 84%
    17:00 -1°C° 0 mm 3 m/S 763 mmHg 85%
    18:00 -2°C° 0 mm 3 m/S 763 mmHg 85%
    19:00 -2°C° 0 mm 3 m/S 763 mmHg 86%
    20:00 -4°C° 0 mm 3 m/S 763 mmHg 86%
    21:00 -4°C° 0 mm 3 m/S 763 mmHg 85%
    22:00 -4°C° 0 mm 3 m/S 763 mmHg 85%
    23:00 -5°C° 0 mm 3 m/S 762 mmHg 85%
    Mehr zeigen